"Pseudo-MPEC" for P22pBcy

Created 2026 Sep 5 9:35:13 UT using Find_Orb

Click here for an explanation of pseudo-MPECs

 
 Astrometry: 
     P22pBcy*0C2026 09 04.37410623 33 29.892+22 15 02.95   ~94BK 21.92wXNEOCPF52
     P22pBcy 0C2026 09 04.38491923 33 29.299+22 15 14.55   ~94BK 21.69wXNEOCPF52
     P22pBcy 0C2026 09 04.39572923 33 28.702+22 15 26.21   ~94BK 21.66wXNEOCPF52
     P22pBcy 0C2026 09 04.40657423 33 28.112+22 15 37.62   ~94BK 21.37wXNEOCPF52
     P22pBcy 0C2026 09 04.47842723 33 24.113+22 16 53.90   ~94MZ 21.85GVNEOCPF52
     P22pBcy 0C2026 09 04.47906023 33 24.049+22 16 54.47   ~94MZ 21.95GVNEOCPF52
     P22pBcy KC2026 09 05.21799923 32 47.58 +22 29 40.7    ~9565 21.6 GVNEOCPH21
     P22pBcy KC2026 09 05.22377723 32 47.26 +22 29 46.7    ~9565 21.4 GVNEOCPH21
     P22pBcy KC2026 09 05.22657023 32 47.11 +22 29 49.5    ~9565 21.2 GVNEOCPH21

Station data:
(F52) Pan-STARRS 2, Haleakala  (N20.707382 W156.255910)  US/Hawaii.
   Observers J. Herman, T. Lowe, P. Minguez, A. Schultz, I. Smith. Measurers
   K. Chambers, T. de Boer, J. Fairlamb, H. Gao, M. Huber, C.-C. Lin, E.
   Magnier, Y. Ramanjooloo, R. Wainscoat, R. Weryk. 1.8-m Ritchey-Chrétien +
   CCD.
(H21) Astronomical Research Observatory, Westfield  (N39.483054 W87.968270)
   US/Illinois.  Observer R. Holmes. Measurers S. Foglia, L. Buzzi, T.
   Linder, R. Holmes. 0.40-m f/5.32 astrograph + CCD.

Orbital elements:  P22pBcy
   Perihelion 2026 Sep 12.569072 +/- 51.8 TT = 13:39:27.8 (JD 2461296.069072)
Epoch 2026 Sep  5.0 TT = JDT 2461288.5   Earth MOID: 0.5302      AutoNEOCP
M 357.696202942 +/- 16              (J2000 ecliptic)
n   0.304369808 +/- 0.0881          Peri.   47.509600 +/- 44
a   2.188777767 +/- 0.422           Node   306.903623 +/- 8
e   0.31080152 +/- 0.105            Incl.   12.222972 +/- 2.0
P   3.23819                H 21.11  G  0.15   U 11.1  SR
q 1.508502296 +/- 0.109    Q 2.869053238 +/- 1.14
From 9 observations 2026 Sept. 4-5 (20.5 hr); mean residual 0".12
Residuals in arcseconds: 
260904 F52  .13-  .11+    260904 F52  .07+  .09-    260905 H21  .12-  .10+    
260904 F52  .10-  .07+    260904 F52  .34+  .07-    260905 H21  .09-  .09+    
260904 F52  .09-  .12+    260904 F52  .06-  .17-    260905 H21  .01-  .01-    

Ephemerides (geocentric):
Date (UTC) HH   RA             Dec           delta  r     elong  mag " sig PA
---- --------  ------------   ------------  ------ ------ -----  --- --------
2026 09 05 10  23 32 37.258   +22 33 09.72  .55243 1.5095 149.2 21.7 1.54  33
2026 09 05 11  23 32 35.144   +22 33 52.41  .55237 1.5095 149.2 21.7 1.86  33
2026 09 05 12  23 32 33.028   +22 34 35.04  .55231 1.5095 149.2 21.7 2.21  34
2026 09 05 13  23 32 30.909   +22 35 17.62  .55225 1.5095 149.3 21.7 2.57  34
2026 09 05 14  23 32 28.788   +22 36 00.13  .55219 1.5095 149.3 21.7 2.96  34
2026 09 05 15  23 32 26.664   +22 36 42.59  .55213 1.5095 149.3 21.7 3.38  35
2026 09 05 16  23 32 24.538   +22 37 24.99  .55207 1.5095 149.3 21.7 3.81  35
2026 09 05 17  23 32 22.409   +22 38 07.34  .55201 1.5095 149.3 21.7 4.27  35
2026 09 05 18  23 32 20.278   +22 38 49.62  .55195 1.5094 149.3 21.7 4.74  35
2026 09 05 19  23 32 18.145   +22 39 31.85  .55189 1.5094 149.4 21.7 5.24  35
2026 09 05 20  23 32 16.010   +22 40 14.02  .55183 1.5094 149.4 21.7 5.76  35
2026 09 05 21  23 32 13.872   +22 40 56.14  .55177 1.5094 149.4 21.7 6.31  35
2026 09 05 22  23 32 11.731   +22 41 38.19  .55171 1.5094 149.4 21.7 6.87  35
2026 09 05 23  23 32 09.589   +22 42 20.19  .55165 1.5094 149.4 21.7 7.46  35
2026 09 06 00  23 32 07.444   +22 43 02.13  .55160 1.5094 149.4 21.7 8.06  35
2026 09 06 01  23 32 05.296   +22 43 44.01  .55154 1.5094 149.5 21.7 8.69  35
2026 09 06 02  23 32 03.147   +22 44 25.83  .55148 1.5094 149.5 21.7 9.34  35
2026 09 06 03  23 32 00.995   +22 45 07.60  .55142 1.5093 149.5 21.7 10.0  35
2026 09 06 04  23 31 58.841   +22 45 49.31  .55137 1.5093 149.5 21.7 10.7  36
2026 09 06 05  23 31 56.684   +22 46 30.95  .55131 1.5093 149.5 21.7 11.4  36
2026 09 06 06  23 31 54.525   +22 47 12.54  .55125 1.5093 149.5 21.7 12.2  36
2026 09 06 07  23 31 52.364   +22 47 54.08  .55120 1.5093 149.6 21.7 12.9  36
2026 09 06 08  23 31 50.201   +22 48 35.55  .55114 1.5093 149.6 21.7 13.7  36
2026 09 06 09  23 31 48.036   +22 49 16.96  .55108 1.5093 149.6 21.7 14.5  36
2026 09 06 10  23 31 45.868   +22 49 58.32  .55103 1.5093 149.6 21.7 15.3  36
2026 09 06 11  23 31 43.698   +22 50 39.62  .55097 1.5093 149.6 21.7 16.2  36
2026 09 06 12  23 31 41.525   +22 51 20.86  .55092 1.5092 149.6 21.7 17.0  36
2026 09 06 13  23 31 39.351   +22 52 02.04  .55086 1.5092 149.6 21.7 17.9  36
2026 09 06 14  23 31 37.174   +22 52 43.16  .55081 1.5092 149.7 21.7 18.8  36
2026 09 06 15  23 31 34.995   +22 53 24.22  .55075 1.5092 149.7 21.7 19.7  36
2026 09 06 16  23 31 32.814   +22 54 05.22  .55070 1.5092 149.7 21.7 20.7  36
2026 09 06 17  23 31 30.631   +22 54 46.16  .55065 1.5092 149.7 21.7 21.7  36
2026 09 06 18  23 31 28.446   +22 55 27.05  .55059 1.5092 149.7 21.7 22.7  36
2026 09 06 19  23 31 26.258   +22 56 07.87  .55054 1.5092 149.7 21.7 23.7  36
2026 09 06 20  23 31 24.069   +22 56 48.64  .55049 1.5092 149.8 21.7 24.7  36
2026 09 06 21  23 31 21.877   +22 57 29.35  .55043 1.5092 149.8 21.7 25.8  36
2026 09 06 22  23 31 19.683   +22 58 09.99  .55038 1.5091 149.8 21.7 26.8  36
2026 09 06 23  23 31 17.487   +22 58 50.58  .55033 1.5091 149.8 21.7 27.9  36
2026 09 07 00  23 31 15.288   +22 59 31.11  .55028 1.5091 149.8 21.7 29.1  36
2026 09 07 01  23 31 13.088   +23 00 11.58  .55022 1.5091 149.8 21.7 30.2  36
2026 09 07 02  23 31 10.886   +23 00 51.99  .55017 1.5091 149.8 21.7 31.4  36
2026 09 07 03  23 31 08.681   +23 01 32.34  .55012 1.5091 149.9 21.7 32.6  36
2026 09 07 04  23 31 06.475   +23 02 12.63  .55007 1.5091 149.9 21.7 33.8  36
2026 09 07 05  23 31 04.266   +23 02 52.86  .55002 1.5091 149.9 21.7 35.0  36
2026 09 07 06  23 31 02.055   +23 03 33.03  .54997 1.5091 149.9 21.7 36.2  37
2026 09 07 07  23 30 59.843   +23 04 13.14  .54992 1.5091 149.9 21.7 37.5  37
2026 09 07 08  23 30 57.628   +23 04 53.19  .54987 1.5091 149.9 21.7 38.8  37
2026 09 07 09  23 30 55.411   +23 05 33.18  .54982 1.5090 150.0 21.7 40.1  37